Dewpoint
56 56 57 56 59 62 62 62 62 62 63 63 63 62 63 63 63 63 64 64 63 63 62 62 62 62 62 63 63 63 61 54 54 51 48 49 55 63 61 63 63 63 61 49 47 47 45 45 48 53 54 49 48 41 42 35 36 39 32 30 29 28 25 27 24 24 24 22 20 24 29 33 31 28 32 42 37 45 47 47 52 53 54 54 55 57 58 62
56 56 57 57 58 61 61 62 62 63 63 63 63 62 62 64 63 63 63 64 63 63 62 62 62 62 62 63 63 61 56 56 51 52 46 59 64 63 65 64 64 62 60 48 45 45 47 46 48 51 54 56 54 43 44 32 36 35 32 31 28 28 28 27 24 24 23 24 22 21 24 30 32 29 34 32 32 38 40 44 49 51 52 55 57 57 59 62
56 55 57 57 57 60 61 61 61 62 62 62 62 62 62 62 63 63 63 63 63 63 62 62 62 62 62 62 61 59 55 53 52 50 49 63 63 64 65 65 64 63 53 47 46 47 48 50 47 48 56 56 51 45 39 30 34 29 34 29 29 30 27 25 24 22 24 23 22 21 23 26 29 27 36 31 34 39 31 35 44 46 48 52 57 58 60 61
56 56 57 58 58 58 61 61 59 61 61 62 62 62 61 62 62 62 62 63 63 62 62 62 62 62 62 61 59 55 54 51 48 48 50 63 63 65 65 65 64 58 52 50 51 48 51 51 51 47 53 51 53 51 40 34 27 28 30 29 27 25 25 22 22 22 22 23 22 21 23 23 25 26 34 31 29 32 30 29 33 38 45 53 57 58 60 60
57 58 58 57 57 58 59 61 61 60 61 61 62 61 61 62 62 61 63 63 62 62 62 61 61 61 61 60 57 53 51 45 44 50 53 64 64 65 65 64 62 55 51 51 51 51 50 49 50 54 51 49 51 47 38 37 27 28 25 24 24 24 23 22 23 23 21 22 21 22 21 21 25 26 31 32 25 21 26 31 34 31 43 54 56 57 60 60
57 57 57 57 57 57 58 60 61 61 61 60 61 61 61 60 61 62 62 63 62 62 62 61 61 61 60 58 53 52 47 37 51 48 62 65 64 65 65 62 60 53 51 50 50 50 48 48 47 46 47 45 46 43 43 40 32 28 24 24 24 25 23 24 23 23 22 20 20 21 22 22 23 22 27 30 27 24 28 31 37 37 48 54 56 58 59 60
57 57 56 56 57 57 57 58 60 60 60 60 61 62 62 61 60 61 62 63 62 62 62 61 61 61 59 56 51 48 45 48 47 55 62 64 65 65 63 60 59 53 51 50 49 48 46 46 43 47 46 45 44 47 46 42 34 37 29 26 26 26 26 25 23 23 21 21 20 22 22 21 22 20 26 29 30 28 37 45 33 42 53 56 56 58 59 59
55 56 56 56 56 56 56 57 60 60 60 60 61 61 62 62 61 60 61 62 62 62 62 61 61 60 57 52 47 43 43 43 49 58 63 63 63 61 59 55 54 53 51 49 50 48 48 45 42 47 43 40 43 44 41 43 41 39 38 28 29 27 27 25 22 21 21 21 21 22 21 20 22 21 25 25 26 29 39 42 39 48 54 55 56 57 58 58
55 56 55 55 56 56 56 56 59 60 60 60 61 61 62 62 62 61 61 62 62 62 61 61 61 60 56 50 45 42 41 48 51 58 62 62 60 56 56 54 54 51 52 52 50 50 49 47 46 43 42 44 45 41 39 42 42 40 37 32 29 30 31 25 26 23 20 20 21 21 20 21 21 22 21 22 23 29 49 50 50 54 54 56 56 57 58 58
55 55 55 56 56 56 56 55 58 59 60 60 61 62 62 62 62 62 62 62 62 62 61 61 61 59 53 50 45 40 43 58 58 61 60 60 57 56 56 53 53 51 51 53 52 52 47 49 46 49 47 46 46 44 42 42 39 36 37 35 31 32 29 26 29 29 21 22 21 20 20 21 20 21 18 19 37 42 46 50 53 53 52 55 56 57 57 58
55 55 55 55 55 56 56 56 57 59 59 58 61 62 62 62 62 62 62 62 62 62 61 61 60 57 52 47 42 40 56 60 60 61 61 58 56 54 53 54 53 51 51 52 51 54 54 50 52 51 47 41 47 42 45 41 36 34 35 40 40 30 31 32 26 27 23 28 21 20 20 20 20 21 19 20 44 49 42 51 52 51 51 55 56 56 57 57
54 55 55 55 55 55 56 56 57 58 58 59 60 62 61 61 61 61 61 62 62 62 61 61 60 54 49 46 41 43 56 60 62 60 58 56 54 54 55 52 52 53 52 51 52 54 53 55 52 46 41 46 42 44 44 42 39 33 34 41 41 40 39 38 36 25 23 30 20 21 20 19 19 19 21 21 41 48 45 49 53 51 51 54 55 56 56 56
54 55 55 55 55 56 56 56 56 58 57 58 60 61 61 61 61 61 61 61 62 62 61 60 58 55 50 45 44 55 56 60 60 58 56 56 55 54 55 55 54 52 52 51 51 52 53 53 55 49 49 44 43 42 47 44 41 34 37 40 41 40 39 27 22 20 21 21 20 21 21 22 19 19 18 22 44 47 45 43 49 51 52 53 55 55 56 56
54 54 55 56 56 56 56 56 58 58 59 59 60 60 61 61 61 61 61 60 62 62 61 60 56 55 47 45 52 54 60 60 56 55 54 54 52 55 53 54 54 54 55 53 52 52 55 54 53 51 49 44 42 46 41 41 44 42 39 37 39 39 37 21 23 19 21 20 20 19 23 22 22 19 21 39 48 40 34 37 46 50 52 53 55 55 55 56
54 54 55 55 55 56 56 56 57 57 57 57 59 60 60 60 60 61 60 61 62 61 61 59 55 53 49 48 51 57 60 56 54 53 53 51 52 52 52 52 53 53 52 52 53 55 54 52 49 46 44 44 44 43 41 41 39 41 39 38 36 37 36 34 27 21 26 18 19 18 21 21 21 20 16 24 47 43 30 31 42 49 51 52 53 54 54 55
54 54 55 55 55 56 56 56 57 57 56 56 59 59 59 59 59 60 61 59 60 61 60 56 54 52 49 46 49 60 58 54 53 53 53 52 51 51 52 52 53 52 51 52 52 55 55 53 47 45 43 45 41 42 41 40 40 38 39 39 37 35 37 35 22 20 21 18 19 18 20 16 16 13 15 23 40 45 33 28 39 46 50 52 52 54 54 55
53 54 55 55 55 55 55 56 57 57 57 56 58 59 59 58 59 61 60 58 59 61 58 54 54 52 45 53 59 53 54 55 54 54 54 52 52 52 51 51 52 52 53 53 54 54 53 48 48 46 47 42 42 42 41 40 40 40 36 38 36 33 30 33 28 20 24 18 17 17 16 17 18 13 14 26 40 42 36 32 35 44 47 49 52 53 54 54
53 53 54 54 55 54 55 56 56 57 57 56 56 58 60 60 61 60 60 59 61 60 57 57 54 50 48 53 47 49 55 55 53 52 54 52 52 51 50 50 51 51 51 50 54 50 51 47 49 44 44 43 42 41 39 38 39 39 36 38 35 29 35 38 37 20 20 18 17 17 16 16 17 17 17 22 40 39 32 31 32 36 43 47 49 51 52 53
52 52 53 54 54 54 54 55 56 57 57 57 56 58 58 59 58 58 56 57 53 51 48 48 48 40 37 47 50 52 54 55 53 52 51 51 51 51 52 52 52 48 48 47 48 48 49 47 48 45 42 41 40 40 40 40 40 39 38 37 36 35 31 33 31 23 20 19 18 17 17 17 17 17 17 17 35 35 30 36 38 38 41 46 48 50 51 53
52 53 53 54 54 54 54 54 54 56 57 56 55 54 54 49 49 48 53 53 48 48 49 50 49 47 50 50 50 54 55 53 51 51 51 51 50 51 51 50 51 51 47 44 48 47 48 44 43 42 42 42 41 42 41 40 39 39 39 38 36 36 31 25 28 31 23 21 19 18 18 17 17 17 17 17 30 32 32 31 36 37 38 40 44 48 50 52
52 52 52 53 53 53 53 54 55 56 55 54 53 51 45 45 40 38 45 47 48 49 48 49 50 51 48 51 54 53 51 51 51 50 50 51 51 49 49 49 48 47 47 46 46 47 46 43 42 43 43 42 41 42 41 38 37 38 37 37 35 35 34 30 29 30 29 24 22 19 18 19 18 18 17 18 19 18 20 22 25 30 34 38 41 44 48 50
52 51 51 52 52 52 52 53 54 55 55 53 50 49 49 47 49 54 46 41 44 47 48 49 51 51 53 55 55 53 52 50 50 51 53 51 49 47 49 47 45 44 47 47 46 44 44 42 42 43 43 42 42 41 39 38 36 37 37 37 37 33 32 29 24 24 26 25 27 25 20 20 19 18 19 18 17 18 17 19 19 22 29 34 37 41 43 48
50 51 51 52 52 52 52 53 53 55 55 52 47 45 47 53 55 54 49 47 43 49 46 47 48 50 52 54 53 54 49 47 45 50 50 51 48 47 48 45 44 45 46 45 43 42 40 42 43 43 43 42 41 39 38 37 34 36 36 36 36 35 32 34 22 22 23 25 27 26 23 25 24 23 23 22 19 18 20 20 21 24 23 26 29 35 40 42
50 50 50 50 51 51 51 51 51 52 51 51 50 49 53 55 56 53 48 41 37 41 45 47 47 50 51 50 52 50 47 46 47 47 51 51 47 48 47 45 44 45 43 44 43 42 41 43 43 43 43 41 38 37 37 35 34 36 36 37 37 28 31 33 24 21 22 21 23 21 24 27 28 27 27 25 20 19 20 21 21 26 31 29 38 36 36 34
50 50 50 50 51 52 51 51 48 48 51 49 49 54 55 55 55 53 46 42 40 38 48 47 50 50 53 57 52 48 48 48 47 50 51 50 48 47 46 47 47 43 42 43 42 42 42 43 43 42 42 41 38 37 38 37 35 33 35 36 37 31 30 26 22 23 24 26 21 21 26 28 31 30 29 29 18 17 18 19 19 20 23 29 25 28 32 38
50 50 49 50 51 50 48 46 46 50 46 45 49 54 55 55 54 53 46 32 30 37 43 38 51 46 55 51 52 50 49 46 50 51 51 50 50 47 47 47 45 42 42 41 40 44 43 43 43 42 42 42 39 37 38 38 37 35 33 34 35 35 32 26 23 26 27 25 23 19 25 27 24 23 21 21 20 18 20 20 19 19 19 23 25 26 28 31
48 49 50 50 50 50 41 40 48 44 40 44 53 54 54 53 55 48 39 30 28 38 34 43 47 47 52 51 50 49 40 40 51 52 51 52 49 52 44 45 43 45 44 47 44 40 42 42 43 43 42 41 40 38 39 39 38 37 39 34 33 33 33 31 27 28 26 26 27 24 23 21 22 24 25 22 18 17 18 19 19 19 19 18 19 23 27 29
48 48 49 50 49 49 43 49 46 38 39 48 54 54 54 53 52 48 37 23 21 40 35 41 44 51 51 52 51 47 45 48 44 48 52 51 51 46 45 42 43 43 43 42 36 42 42 42 43 42 42 41 40 40 41 39 39 38 37 36 34 32 33 32 31 27 27 24 23 24 26 20 20 21 18 17 21 20 18 17 18 18 20 18 22 22 25 27
49 49 49 49 50 50 50 48 44 43 51 54 54 54 53 51 49 40 30 22 37 36 48 40 53 49 49 51 48 48 47 48 43 48 49 47 43 45 43 43 44 44 44 41 39 40 42 42 42 42 41 40 41 42 42 40 37 28 33 34 34 32 30 30 28 27 25 22 26 26 22 24 24 26 21 17 18 21 22 19 16 17 19 22 22 24 24 23
48 48 49 49 48 49 50 49 47 50 53 54 54 53 51 50 43 31 26 20 39 31 41 43 43 42 48 45 45 46 45 46 47 47 47 46 45 46 42 45 44 43 41 40 40 38 37 41 46 43 40 42 39 40 40 40 31 30 32 31 30 31 30 28 28 24 26 25 27 26 21 23 23 27 24 22 21 18 19 19 16 18 23 19 23 26 31 24
48 48 48 48 47 47 47 44 45 50 52 53 53 51 48 44 33 27 21 27 37 36 41 42 39 47 44 43 39 45 44 44 45 44 41 44 44 46 44 42 44 40 39 37 38 37 38 39 41 42 37 37 36 36 36 35 31 30 29 25 25 27 30 25 23 26 26 28 19 19 21 20 23 24 25 23 17 18 19 17 18 17 17 22 23 21 20 22
47 48 49 48 48 48 42 41 46 50 52 51 51 48 42 30 33 25 23 40 30 34 34 35 40 43 43 43 40 43 41 43 44 42 40 42 41 42 43 38 41 33 34 36 34 37 38 39 37 36 38 37 38 34 32 32 35 32 28 25 26 24 24 23 21 22 23 26 19 15 19 17 20 24 25 18 16 16 16 17 17 16 16 21 25 28 26 29
47 47 48 49 49 48 46 50 51 50 52 50 48 45 34 27 20 27 30 32 30 37 34 40 38 41 43 40 40 42 43 39 43 40 41 43 42 43 44 39 41 39 33 37 34 35 35 37 36 36 36 37 37 34 29 26 31 32 25 27 28 24 24 24 24 24 24 23 17 16 18 18 22 21 22 22 22 18 16 17 22 20 20 23 28 33 23 32
47 47 47 49 48 48 49 50 52 51 49 47 45 38 33 24 23 33 31 32 34 38 39 38 39 41 42 37 39 42 39 42 42 40 41 40 42 39 41 41 39 37 39 37 33 32 30 31 35 34 35 36 37 36 30 29 30 31 32 30 30 27 26 25 25 24 25 27 18 17 24 25 22 22 17 16 17 20 18 16 21 23 24 27 27 27 25 27
46 47 48 49 49 49 48 49 52 51 49 45 39 33 24 23 32 30 32 33 34 38 37 40 38 38 38 38 41 42 41 37 42 40 39 38 38 39 39 39 39 37 38 34 35 33 33 32 34 35 37 35 37 34 32 29 29 33 34 32 30 29 28 27 26 27 24 21 19 20 23 23 24 19 20 19 20 19 18 18 20 19 20 23 24 25 25 25
45 45 45 46 45 48 49 49 50 52 47 40 33 27 25 28 26 33 32 38 37 35 37 39 38 34 34 33 38 40 40 38 40 39 39 38 39 39 40 39 38 36 35 34 35 32 33 29 34 35 33 35 37 33 33 32 29 30 28 28 30 28 24 22 24 15 21 21 21 22 18 22 20 22 21 20 17 16 15 16 15 16 20 26 27 30 26 28
44 44 40 43 44 47 48 49 49 48 46 37 29 22 26 30 35 36 38 37 37 38 37 31 32 33 32 32 33 37 38 40 40 38 36 39 37 39 39 39 39 35 36 34 33 35 32 29 32 34 33 36 33 34 34 33 33 30 27 29 31 32 30 25 25 20 20 22 24 18 21 20 20 23 20 21 20 17 15 13 12 16 22 20 27 32 32 33
41 40 39 40 43 47 49 49 48 46 42 35 26 25 36 29 37 38 39 39 39 38 36 33 33 35 33 33 32 35 38 37 37 38 36 38 35 39 38 38 38 36 34 35 32 33 32 28 31 30 34 35 33 35 32 35 36 31 31 33 31 27 27 24 24 20 20 20 22 17 15 15 20 22 14 13 17 18 17 18 15 12 14 21 25 27 30 35
42 39 35 39 43 47 49 48 45 42 38 30 26 25 33 32 37 38 39 40 40 38 36 36 32 33 35 33 34 37 39 35 38 37 34 37 33 37 37 38 38 36 34 32 32 32 33 29 29 31 32 32 33 35 31 32 32 31 32 31 33 27 28 26 26 25 25 23 21 24 15 20 22 19 20 19 14 16 15 16 16 14 13 14 19 25 27 32
38 36 34 40 44 47 49 47 43 40 34 27 28 28 37 30 38 40 42 41 39 39 37 37 36 34 34 35 36 34 38 38 38 37 35 37 34 37 36 38 36 36 33 30 32 34 28 30 27 29 31 33 30 32 33 32 29 26 29 28 29 28 28 27 24 25 24 23 21 22 21 21 20 17 17 19 19 19 16 17 23 20 20 20 23 26 31 31
39 33 35 45 46 48 47 43 38 32 31 31 30 30 33 33 38 38 40 41 41 42 41 38 38 36 36 35 35 38 38 37 38 38 36 36 33 34 37 36 37 35 32 31 33 33 29 28 28 28 28 30 31 33 32 34 31 29 30 28 28 26 24 26 25 24 24 21 21 18 21 25 14 16 15 15 16 16 21 22 22 21 15 24 30 31 30 33
37 30 34 45 47 48 43 34 35 36 33 30 29 31 32 38 37 38 38 40 39 39 39 40 37 38 38 38 37 37 38 37 38 37 36 35 34 30 36 36 36 34 31 31 32 33 31 31 29 28 29 30 29 29 30 30 32 30 31 30 30 29 26 26 25 24 23 21 21 20 18 21 19 18 16 14 14 12 16 21 17 19 22 23 25 28 29 30
35 32 43 45 47 43 38 33 33 34 32 32 34 33 36 38 35 38 37 39 37 38 36 38 37 36 37 39 38 38 38 36 37 36 35 35 36 29 37 35 35 33 31 30 31 30 35 30 28 28 29 29 29 31 31 30 31 31 29 31 31 29 28 28 23 20 24 21 21 21 20 23 21 19 17 15 16 18 17 16 18 16 18 20 24 28 30 30
36 36 37 45 46 42 34 28 28 30 32 33 32 31 36 35 36 37 36 38 37 36 35 37 38 40 37 40 39 36 39 34 36 33 32 35 33 29 37 34 34 33 31 30 30 34 28 28 28 26 27 26 27 29 29 31 31 29 29 29 30 31 32 29 25 24 22 25 23 23 21 24 26 23 26 23 19 17 16 17 21 23 23 27 24 25 27 30
38 39 38 42 46 40 32 30 30 30 31 32 32 31 33 35 38 37 37 37 38 38 37 37 38 40 38 41 38 38 38 35 33 35 35 34 31 34 35 36 34 33 32 43 37 36 31 29 29 25 24 23 22 23 25 26 28 29 30 29 29 30 29 25 24 23 21 24 22 23 23 26 19 21 16 18 18 14 16 18 19 25 25 24 28 31 29 31
33 26 34 38 41 40 34 32 31 30 30 31 30 30 34 34 37 38 39 38 39 38 38 39 40 40 37 38 37 36 34 35 36 31 32 29 29 32 36 34 34 35 35 37 36 36 30 31 30 28 26 25 26 28 31 31 29 29 29 29 28 30 29 29 27 25 23 26 24 24 26 26 21 17 17 17 17 17 12 15 15 25 27 29 30 31 32 34
39 29 30 29 36 37 35 33 31 30 29 30 27 30 30 32 35 36 38 35 39 37 38 37 37 37 36 37 36 35 36 33 33 34 32 30 30 32 35 35 34 35 37 35 35 33 30 27 30 31 31 30 30 30 29 30 29 29 30 29 30 29 29 29 27 26 28 26 23 25 26 26 25 20 19 23 22 18 17 16 14 18 25 31 30 30 33 34
28 31 32 34 31 28 31 32 32 30 31 30 28 31 29 31 32 33 37 38 39 39 35 37 38 38 37 37 37 34 34 33 33 30 30 30 31 34 33 36 34 35 34 35 34 31 30 28 31 31 30 29 30 28 29 29 29 30 31 30 30 30 29 28 29 29 31 26 24 29 28 27 24 23 20 18 18 14 13 12 16 16 21 25 29 31 33 34
36 37 36 35 33 36 32 33 33 31 29 30 30 30 29 30 31 33 35 36 36 36 37 32 35 37 38 40 38 35 34 31 31 32 30 29 30 31 30 32 33 35 32 32 31 32 29 28 31 31 29 30 30 30 30 29 28 29 31 30 30 30 29 28 28 29 29 29 29 29 28 28 27 27 25 23 24 24 16 20 23 23 23 27 28 29 29 29
31 32 30 36 36 36 35 34 33 31 28 30 26 29 29 29 30 33 36 36 32 34 38 35 36 38 38 39 39 36 35 35 34 32 32 30 31 31 31 31 30 31 31 30 32 31 30 25 31 29 25 26 30 31 31 30 30 29 29 30 30 30 30 29 28 29 30 29 29 29 29 29 28 28 27 25 24 27 22 19 18 22 28 27 26 25 26 30
37 36 35 34 31 34 35 35 33 30 28 29 27 28 29 29 30 33 36 37 34 34 37 35 36 37 38 38 38 37 36 36 36 35 33 32 30 32 30 31 32 30 32 32 31 34 33 25 30 27 25 24 27 29 29 30 29 28 28 29 29 30 29 30 29 30 28 27 28 28 28 27 27 27 26 25 24 24 23 25 25 27 25 25 27 26 27 29
38 38 38 36 30 33 32 34 34 30 27 28 28 28 30 29 30 32 33 37 36 35 37 38 37 37 37 37 37 38 39 37 37 36 33 37 39 36 35 32 32 31 31 31 33 27 27 27 26 26 24 21 25 27 28 28 28 26 27 29 29 29 29 31 30 31 30 29 29 28 26 28 28 28 26 25 24 24 26 25 28 29 31 30 27 28 29 30